DW5212 Weather Reports


time (UTC)temp
F
wind
direction
speed
knots
gust
knots
rain 1hr
in
rain 24hr
in
rain mn
in
humidity
%
barometer
mb
20260901045504 79 88 0.0 0.0 0.00 0.00 0.00 81 1016.3
20260901045004 79 88 0.0 0.0 0.00 0.00 0.00 81 1016.3
20260901044506 79 88 0.0 0.0 0.00 0.00 0.00 81 1016.4
20260901044004 79 89 0.0 0.0 0.00 0.00 0.00 81 1016.3
20260901043503 79 88 0.0 0.0 0.00 0.00 0.00 81 1016.3
20260901043004 79 88 0.0 0.0 0.00 0.00 0.00 80 1016.3
20260901042004 80 88 0.0 0.0 0.00 0.00 0.00 80 1016.1
20260901041504 80 88 0.0 0.0 0.00 0.00 0.00 80 1016.0
20260901040503 80 88 0.0 0.9 0.00 0.00 0.00 79 1016.0
20260901035503 80 89 0.0 0.0 0.00 0.00 0.00 79 1015.9
20260901035004 80 88 0.0 0.0 0.00 0.00 0.00 79 1015.8
20260901034504 81 89 0.0 0.0 0.00 0.00 0.00 78 1015.8
20260901034004 81 89 0.0 0.9 0.00 0.00 0.00 78 1015.9
20260901033503 81 88 0.0 0.9 0.00 0.00 0.00 78 1016.0
20260901032504 81 89 0.0 0.0 0.00 0.00 0.00 77 1015.9
20260901032004 81 89 0.0 0.0 0.00 0.00 0.00 77 1015.9
20260901031504 81 89 0.0 0.0 0.00 0.00 0.00 77 1015.9
20260901031004 81 89 0.0 0.0 0.00 0.00 0.00 76 1015.8
20260901030504 82 89 0.0 0.0 0.00 0.00 0.00 76 1015.7
20260901025504 82 89 0.0 0.9 0.00 0.00 0.00 76 1015.7
20260901025004 82 89 0.0 0.9 0.00 0.00 0.00 75 1015.7
20260901024504 82 89 0.0 1.7 0.00 0.00 0.00 75 1015.7
20260901024005 82 130 0.0 0.9 0.00 0.00 0.00 74 1015.7
20260901023006 82 130 0.0 1.7 0.00 0.00 0.00 73 1015.6
20260901022504 83 201 0.0 0.0 0.00 0.00 0.00 73 1015.5
20260901022005 83 201 0.0 1.7 0.00 0.00 0.00 74 1015.4
20260901021504 83 201 0.0 2.6 0.00 0.00 0.00 73 1015.3
20260901020006 83 253 0.0 2.6 0.00 0.00 0.00 74 1015.3
20260901015504 83 253 0.0 2.6 0.00 0.00 0.00 74 1015.3
20260901015004 83 90 0.0 1.7 0.00 0.00 0.00 73 1015.4
20260901014504 83 90 0.0 0.9 0.00 0.00 0.00 72 1015.4
20260901014003 84 92 0.0 0.9 0.00 0.00 0.00 73 1015.2
20260901013503 84 93 0.0 0.9 0.00 0.00 0.00 72 1015.3
20260901013004 84 94 0.0 0.0 0.00 0.00 0.00 72 1015.4
20260901012504 84 94 0.0 1.7 0.00 0.00 0.00 71 1015.3
20260901012004 84 88 0.0 0.9 0.00 0.00 0.00 70 1015.3
20260901011504 85 162 0.0 0.0 0.00 0.00 0.00 70 1015.2
20260901011004 85 162 0.0 0.0 0.00 0.00 0.00 69 1015.2
20260901010004 86 162 0.0 0.0 0.00 0.00 0.00 68 1015.0
20260901005503 86 162 0.0 0.0 0.00 0.00 0.00 68 1015.1
20260901005004 87 161 0.0 0.0 0.00 0.00 0.00 68 1015.0
20260901004504 87 162 0.0 0.0 0.00 0.00 0.00 67 1014.9
20260901004004 87 162 0.0 0.0 0.00 0.00 0.00 66 1014.8
20260901003004 88 162 0.0 0.0 0.00 0.00 0.00 65 1014.9
20260901002004 89 161 0.0 0.0 0.00 0.00 0.00 62 1014.8
20260901001004 89 162 0.0 0.0 0.00 0.00 0.00 59 1014.7
20260901000504 89 162 0.0 0.0 0.00 0.00 0.00 58 1014.6
20260901000008 90 161 0.0 0.0 0.00 0.00 0.00 58 1014.8
20260831235503 90 162 0.0 1.7 0.00 0.00 0.00 58 1014.9
20260831235004 90 162 0.0 1.7 0.00 0.00 0.00 57 1014.9
20260831234004 91 162 0.0 0.0 0.00 0.00 0.00 55 1015.1
20260831233503 91 162 0.0 1.7 0.00 0.00 0.00 55 1015.0
20260831233004 91 162 0.0 1.7 0.00 0.00 0.00 54 1014.9
20260831232504 91 96 0.0 0.9 0.00 0.00 0.00 53 1015.0
20260831232003 92 95 0.9 1.7 0.00 0.00 0.00 54 1015.1
20260831230503 92 138 0.0 2.6 0.00 0.00 0.00 54 1014.9
20260831230006 92 182 0.9 2.6 0.00 0.00 0.00 54 1014.9
20260831225504 92 109 0.9 2.6 0.00 0.00 0.00 53 1015.0
20260831225004 92 211 0.9 3.5 0.00 0.00 0.00 53 1014.9
20260831224504 92 16 0.9 2.6 0.00 0.00 0.00 53 1014.9
20260831224003 92 64 0.9 1.7 0.00 0.00 0.00 53 1015.0
20260831223503 92 89 0.9 3.5 0.00 0.00 0.00 54 1014.9
20260831223004 92 188 0.9 3.5 0.00 0.00 0.00 52 1015.0
20260831222503 92 169 0.9 3.5 0.00 0.00 0.00 52 1014.8
20260831222005 92 219 0.9 2.6 0.00 0.00 0.00 52 1014.8
20260831221504 92 71 0.9 2.6 0.00 0.00 0.00 52 1014.8
20260831221004 92 102 0.9 2.6 0.00 0.00 0.00 53 1014.8
20260831220503 92 167 0.9 6.1 0.00 0.00 0.00 53 1014.9
20260831220006 92 108 0.9 6.1 0.00 0.00 0.00 54 1014.8
20260831215503 92 112 0.9 3.5 0.00 0.00 0.00 55 1014.8
20260831215004 92 208 0.0 1.7 0.00 0.00 0.00 55 1015.0
20260831214504 92 208 0.0 1.7 0.00 0.00 0.00 54 1015.0
20260831214004 93 208 0.0 0.9 0.00 0.00 0.00 53 1015.3
20260831213503 93 208 0.0 1.7 0.00 0.00 0.00 53 1015.3
20260831213004 94 139 0.9 2.6 0.00 0.00 0.00 51 1015.3
20260831212503 94 150 1.7 2.6 0.00 0.00 0.00 50 1015.5
20260831212003 95 24 1.7 2.6 0.00 0.00 0.00 50 1015.5
20260831211504 95 23 0.9 2.6 0.00 0.00 0.00 51 1015.4
20260831211004 94 144 0.9 4.3 0.00 0.00 0.00 50 1015.6
20260831210503 94 159 0.9 4.3 0.00 0.00 0.00 51 1015.5
20260831205503 95 214 0.9 1.7 0.00 0.00 0.00 50 1015.5
20260831205004 95 28 0.9 3.5 0.00 0.00 0.00 52 1015.7
20260831204004 95 105 0.9 2.6 0.00 0.00 0.00 52 1015.7
20260831203503 95 155 0.9 5.2 0.00 0.00 0.00 50 1015.7
20260831203004 95 143 0.9 5.2 0.00 0.00 0.00 51 1015.7
20260831202504 95 265 0.9 2.6 0.00 0.00 0.00 52 1015.8
20260831202004 96 24 1.7 2.6 0.00 0.00 0.00 51 1015.9
20260831201504 96 82 0.9 2.6 0.00 0.00 0.00 51 1015.8
20260831201004 96 114 1.7 3.5 0.00 0.00 0.00 51 1015.8
20260831200504 96 17 1.7 3.5 0.00 0.00 0.00 52 1015.8
20260831195503 95 132 0.0 3.5 0.00 0.00 0.00 52 1015.9
20260831195003 95 67 0.9 1.7 0.00 0.00 0.00 53 1016.1
20260831194504 95 67 1.7 3.5 0.00 0.00 0.00 51 1016.1
20260831194005 96 47 1.7 3.5 0.00 0.00 0.00 51 1016.1
20260831192503 95 150 0.9 2.6 0.00 0.00 0.00 53 1016.5
20260831192003 95 109 0.9 2.6 0.00 0.00 0.00 52 1016.5
20260831191503 95 112 0.9 2.6 0.00 0.00 0.00 52 1016.6
20260831190503 95 194 1.7 3.5 0.00 0.00 0.00 52 1016.7
20260831185503 95 262 0.9 2.6 0.00 0.00 0.00 54 1016.6
20260831184504 94 105 0.9 5.2 0.00 0.00 0.00 54 1016.8
20260831184004 94 286 0.9 2.6 0.00 0.00 0.00 55 1016.7
20260831183503 95 26 0.9 2.6 0.00 0.00 0.00 54 1016.8
20260831183006 95 183 1.7 3.5 0.00 0.00 0.00 54 1016.7
20260831182504 94 202 1.7 3.5 0.00 0.00 0.00 56 1016.8
20260831182004 94 71 1.7 3.5 0.00 0.00 0.00 58 1016.8
20260831181504 93 28 1.7 4.3 0.00 0.00 0.00 56 1016.9
20260831181005 93 194 1.7 4.3 0.00 0.00 0.00 56 1017.0
20260831180503 93 74 0.9 2.6 0.00 0.00 0.00 59 1017.2
20260831180006 93 344 0.9 2.6 0.00 0.00 0.00 56 1017.3
20260831175504 94 19 1.7 3.5 0.00 0.00 0.00 56 1017.4
20260831175004 94 59 0.9 3.5 0.00 0.00 0.00 56 1017.5
20260831174503 94 26 0.9 3.5 0.00 0.00 0.00 56 1017.5
20260831174004 93 203 1.7 3.5 0.00 0.00 0.00 58 1017.5
20260831173504 93 111 1.7 3.5 0.00 0.00 0.00 57 1017.6
20260831171504 92 122 0.9 5.2 0.00 0.00 0.00 60 1017.8
20260831170503 91 265 0.9 2.6 0.00 0.00 0.00 62 1017.9
20260831170006 90 292 0.0 2.6 0.00 0.00 0.00 62 1018.0
20260831165503 90 31 0.9 2.6 0.00 0.00 0.00 61 1018.1
20260831165003 91 32 0.9 2.6 0.00 0.00 0.00 61 1018.0
20260831164504 91 105 0.9 2.6 0.00 0.00 0.00 61 1018.2
20260831163004 91 202 0.9 2.6 0.00 0.00 0.00 61 1018.3
20260831162503 91 169 0.9 1.7 0.00 0.00 0.00 64 1018.4
20260831162004 90 51 0.9 2.6 0.00 0.00 0.00 63 1018.5
20260831161004 91 102 0.9 2.6 0.00 0.00 0.00 62 1018.5
20260831160005 89 121 0.9 2.6 0.00 0.00 0.00 65 1018.5
20260831155003 89 177 0.9 2.6 0.00 0.00 0.00 67 1018.5
20260831154504 89 338 0.0 1.7 0.00 0.00 0.00 66 1018.6
20260831154003 90 5 0.9 1.7 0.00 0.00 0.00 66 1018.5
20260831153503 90 64 0.9 4.3 0.00 0.00 0.00 66 1018.6
20260831153004 90 144 0.9 4.3 0.00 0.00 0.00 67 1018.5
20260831152503 90 169 0.9 2.6 0.00 0.00 0.00 68 1018.4
20260831152004 90 173 0.9 2.6 0.00 0.00 0.00 69 1018.3
20260831151503 89 128 0.9 2.6 0.00 0.00 0.00 70 1018.3
20260831151003 88 95 0.9 2.6 0.00 0.00 0.00 71 1018.3
20260831150503 88 143 0.9 4.3 0.00 0.00 0.00 72 1018.3
20260831150004 87 238 0.0 4.3 0.00 0.00 0.00 73 1018.3
20260831145004 86 144 0.9 2.6 0.00 0.00 0.00 75 1018.2
20260831144504 86 146 0.0 1.7 0.00 0.00 0.00 77 1018.1
20260831143503 84 155 0.9 2.6 0.00 0.00 0.00 81 1018.3
20260831143004 83 190 0.9 2.6 0.00 0.00 0.00 83 1018.2
20260831142503 82 109 0.9 2.6 0.00 0.00 0.00 84 1018.3
20260831142004 81 134 0.9 1.7 0.00 0.00 0.00 87 1018.3
20260831141503 79 145 0.0 3.5 0.00 0.00 0.00 89 1018.3
20260831141003 79 138 0.0 3.5 0.00 0.00 0.00 90 1018.2
20260831140502 78 92 0.0 0.0 0.00 0.00 0.00 91 1018.3
20260831140004 78 97 0.0 0.0 0.00 0.00 0.00 92 1018.3
20260831135503 77 98 0.0 0.0 0.00 0.00 0.00 93 1018.3
20260831135004 77 98 0.0 0.0 0.00 0.00 0.00 93 1018.3
20260831133504 75 98 0.0 0.0 0.00 0.00 0.00 94 1018.1
20260831133004 75 219 0.0 0.0 0.00 0.00 0.00 94 1018.1
20260831132503 75 219 0.0 0.0 0.00 0.00 0.00 95 1018.0
20260831132003 74 219 0.0 0.0 0.00 0.00 0.00 95 1018.0
20260831131504 74 219 0.0 0.0 0.00 0.00 0.00 94 1018.0
20260831131003 74 219 0.0 0.0 0.00 0.00 0.00 95 1017.9
20260831130503 73 219 0.0 0.0 0.00 0.00 0.00 95 1017.9
20260831130004 73 219 0.0 0.0 0.00 0.00 0.00 95 1017.8
20260831125504 73 219 0.0 0.0 0.00 0.00 0.00 94 1017.7
20260831125004 72 219 0.0 0.0 0.00 0.00 0.00 94 1017.7
20260831124003 72 219 0.0 0.0 0.00 0.00 0.00 94 1017.6
20260831123503 71 219 0.0 0.0 0.00 0.00 0.00 94 1017.6
20260831123004 71 219 0.0 0.0 0.00 0.00 0.00 94 1017.5
20260831122503 71 219 0.0 0.0 0.00 0.00 0.00 94 1017.3
20260831122003 71 219 0.0 0.0 0.00 0.00 0.00 93 1017.3
20260831121503 71 219 0.0 0.0 0.00 0.00 0.00 93 1017.2
20260831121004 71 219 0.0 0.0 0.00 0.00 0.00 93 1017.1
20260831120503 71 219 0.0 0.0 0.00 0.00 0.00 93 1017.1
20260831120004 71 219 0.0 0.0 0.00 0.00 0.00 93 1017.0
20260831115504 71 219 0.0 0.0 0.00 0.00 0.00 93 1016.9
20260831115004 71 219 0.0 0.0 0.00 0.00 0.00 93 1016.9
20260831114504 71 219 0.0 0.0 0.00 0.00 0.00 93 1016.8
20260831114003 71 219 0.0 0.0 0.00 0.00 0.00 93 1016.8
20260831113503 71 219 0.0 0.0 0.00 0.00 0.00 93 1016.7
20260831113004 71 219 0.0 0.0 0.00 0.00 0.00 93 1016.6
20260831112503 71 219 0.0 0.0 0.00 0.00 0.00 93 1016.6
20260831112004 72 219 0.0 0.0 0.00 0.00 0.00 93 1016.5
20260831111503 72 219 0.0 0.0 0.00 0.00 0.00 93 1016.5
20260831111004 72 219 0.0 0.0 0.00 0.00 0.00 93 1016.5
20260831110503 72 219 0.0 0.0 0.00 0.00 0.00 93 1016.4
20260831110004 72 219 0.0 0.0 0.00 0.00 0.00 93 1016.3
20260831105503 72 219 0.0 0.0 0.00 0.00 0.00 92 1016.3
20260831105003 72 219 0.0 0.0 0.00 0.00 0.00 92 1016.3
20260831104503 72 219 0.0 0.0 0.00 0.00 0.00 92 1016.3
20260831103004 72 219 0.0 0.0 0.00 0.00 0.00 92 1016.2
20260831102501 72 219 0.0 0.0 0.00 0.00 0.00 92 1016.2
20260831102004 72 219 0.0 0.0 0.00 0.00 0.00 91 1016.2
20260831101502 73 219 0.0 0.0 0.00 0.00 0.00 92 1016.2
20260831100500 73 219 0.0 0.0 0.00 0.00 0.00 91 1016.2
20260831100004 73 219 0.0 0.0 0.00 0.00 0.00 92 1016.2
20260831095003 73 219 0.0 0.0 0.00 0.00 0.00 92 1016.1
20260831094004 73 219 0.0 0.0 0.00 0.00 0.00 91 1016.1
20260831093500 73 219 0.0 0.0 0.00 0.00 0.00 91 1016.1
20260831093003 73 219 0.0 0.0 0.00 0.00 0.00 91 1016.0
20260831092503 73 219 0.0 0.0 0.00 0.00 0.00 91 1016.1
20260831092004 73 219 0.0 0.0 0.00 0.00 0.00 90 1016.4
20260831091503 73 219 0.0 0.0 0.00 0.00 0.00 90 1016.4
20260831090503 74 219 0.0 0.0 0.00 0.00 0.00 90 1016.2
20260831090004 74 219 0.0 0.0 0.00 0.00 0.00 89 1016.2
20260831085503 74 219 0.0 0.0 0.00 0.00 0.00 89 1016.2
20260831085003 74 219 0.0 0.0 0.00 0.00 0.00 89 1016.2
20260831084500 74 219 0.0 0.0 0.00 0.00 0.00 88 1016.1
20260831084003 74 219 0.0 0.0 0.00 0.00 0.00 88 1016.1
20260831083503 74 219 0.0 0.0 0.00 0.00 0.00 88 1016.2
20260831083004 74 219 0.0 0.0 0.00 0.00 0.00 88 1016.1
20260831082459 75 219 0.0 0.0 0.00 0.00 0.00 88 1016.1
20260831082004 75 219 0.0 0.0 0.00 0.00 0.00 88 1016.1
20260831081003 75 219 0.0 0.0 0.00 0.00 0.00 88 1016.2
20260831080500 75 219 0.0 0.0 0.00 0.00 0.00 88 1016.2
20260831080004 75 219 0.0 0.0 0.00 0.00 0.00 88 1016.3
20260831075500 75 219 0.0 0.0 0.00 0.00 0.00 87 1016.3
20260831075004 75 219 0.0 0.0 0.00 0.00 0.00 87 1016.4
20260831074500 75 219 0.0 0.0 0.00 0.00 0.00 87 1016.3
20260831074003 75 219 0.0 0.0 0.00 0.00 0.00 87 1016.4
20260831073500 75 219 0.0 0.0 0.00 0.00 0.00 86 1016.4
20260831073003 76 219 0.0 0.0 0.00 0.00 0.00 86 1016.4
20260831072503 76 219 0.0 0.0 0.00 0.00 0.00 86 1016.4
20260831072004 76 219 0.0 0.0 0.00 0.00 0.00 86 1016.4
20260831071500 76 219 0.0 0.0 0.00 0.00 0.00 85 1016.5
20260831071004 76 219 0.0 0.0 0.00 0.00 0.00 85 1016.5
20260831070500 76 219 0.0 0.0 0.00 0.00 0.00 85 1016.6
20260831070003 76 219 0.0 0.0 0.00 0.00 0.00 85 1016.6
20260831065503 77 219 0.0 0.0 0.00 0.00 0.00 85 1016.6
20260831065004 77 219 0.0 0.0 0.00 0.00 0.00 84 1016.6
20260831064003 77 219 0.0 0.0 0.00 0.00 0.00 84 1016.7
20260831063459 77 219 0.0 0.0 0.00 0.00 0.00 84 1016.7
20260831062500 77 219 0.0 0.0 0.00 0.00 0.00 84 1016.7
20260831062004 77 219 0.0 0.0 0.00 0.00 0.00 84 1016.8
20260831061503 77 219 0.0 0.0 0.00 0.00 0.00 83 1016.8
20260831061002 77 219 0.0 0.0 0.00 0.00 0.00 83 1016.7
20260831060500 77 219 0.0 0.0 0.00 0.00 0.00 83 1016.7
20260831055503 77 219 0.0 0.0 0.00 0.00 0.00 82 1016.7
20260831055003 78 219 0.0 0.0 0.00 0.00 0.00 82 1016.8
20260831054503 78 219 0.0 0.0 0.00 0.00 0.00 82 1016.7
20260831054004 78 219 0.0 0.0 0.00 0.00 0.00 82 1016.7
20260831053503 78 224 0.0 0.0 0.00 0.00 0.00 82 1016.8
20260831053004 78 226 0.0 0.0 0.00 0.00 0.00 82 1016.8
20260831052004 78 165 0.0 0.0 0.00 0.00 0.00 81 1016.7
20260831051504 78 165 0.0 0.0 0.00 0.00 0.00 81 1016.6
20260831051004 78 165 0.0 0.0 0.00 0.00 0.00 81 1016.7
20260831050503 78 165 0.0 0.0 0.00 0.00 0.00 80 1016.8
20260831050010 78 159 0.0 1.7 0.00 0.00 0.00 80 1016.6